STARLINK-36363

Last updated on Tue Mar 24 2026 00:02:05 GMT+0000 (Coordinated Universal Time)

1 67890U 26035M 26082.53622751 .00101570 00000+0 67392-3 0 9998 2 67890 97.2858 15.6221 0002473 75.4216 284.7323 15.75182595 6024
UTC large
Height (km)
Speed (km/s)
/
Latitude / Longitude
Inclination (degrees)
Orbital Period (minutes)
Azimuth
Elevation
Range (km)
Doppler Factor

Next 0 passes for location: London (51.5072 / 0.1276)

Sorry there are no passes over London.